DW9955 Weather Reports


time (UTC)temp
C
wind
direction
speed
KPH
gust
KPH
rain 1hr
cm
rain 24hr
cm
rain mn
cm
humidity
%
barometer
mb
20260906220023 32 18 8.0 16.1 0.00 0.00 0.00 25 1001.9
20260906214524 32 342 11.3 17.7 0.00 0.00 0.00 27 1001.8
20260906213020 32 23 8.0 16.1 0.00 0.00 0.00 27 1002.1
20260906211515 31 349 8.0 14.5 0.00 0.00 0.00 27 1002.6
20260906210014 31 18 9.7 19.3 0.00 0.00 0.00 30 1002.9
20260906204511 31 330 9.7 19.3 0.00 0.00 0.00 30 1003.0
20260906203010 31 9 9.7 20.9 0.00 0.00 0.00 32 1003.3
20260906201508 31 12 9.7 19.3 0.00 0.00 0.00 32 1003.4
20260906200004 30 332 9.7 16.1 0.00 0.00 0.00 31 1003.7
20260906194603 30 346 6.4 16.1 0.00 0.00 0.00 32 1003.9
20260906193057 29 8 6.4 17.7 0.00 0.00 0.00 36 1004.1
20260906191553 28 359 8.0 14.5 0.00 0.00 0.00 35 1004.4
20260906190049 28 10 4.8 19.3 0.00 0.00 0.00 38 1004.8
20260906184552 27 325 4.8 14.5 0.00 0.00 0.00 39 1005.2
20260906183041 26 354 6.4 9.7 0.00 0.00 0.00 41 1005.5
20260906181537 26 323 3.2 8.0 0.00 0.00 0.00 45 1005.7
20260906180054 25 312 4.8 9.7 0.00 0.00 0.00 48 1006.1
20260906174534 25 274 6.4 14.5 0.00 0.00 0.00 45 1006.5
20260906173024 24 285 3.2 6.4 0.00 0.00 0.00 47 1006.8
20260906171520 23 359 3.2 8.0 0.00 0.00 0.00 47 1007.1
20260906170017 23 19 3.2 8.0 0.00 0.00 0.00 48 1007.4
20260906164512 23 32 0.0 6.4 0.00 0.00 0.00 50 1007.6
20260906163008 22 26 3.2 9.7 0.00 0.00 0.00 51 1007.8
20260906161510 22 44 4.8 11.3 0.00 0.00 0.00 52 1007.8
20260906154600 21 25 6.4 12.9 0.00 0.00 0.00 55 1008.0
20260906153053 21 35 4.8 8.0 0.00 0.00 0.00 56 1008.0
20260906151550 20 114 3.2 9.7 0.00 0.00 0.00 56 1008.0
20260906150046 19 121 3.2 6.4 0.00 0.00 0.00 58 1008.1
20260906144541 18 131 1.6 8.0 0.00 0.00 0.00 60 1008.2
20260906143038 16 182 4.8 8.0 0.00 0.00 0.00 66 1008.3
20260906141538 15 209 0.0 3.2 0.00 0.00 0.00 70 1008.3
20260906140033 14 208 0.0 3.2 0.00 0.00 0.00 71 1008.3
20260906134528 13 209 0.0 0.0 0.00 0.00 0.00 72 1008.2
20260906133021 12 208 0.0 3.2 0.00 0.00 0.00 73 1008.2
20260906131531 11 208 0.0 0.0 0.00 0.00 0.00 74 1008.2
20260906130015 12 208 0.0 3.2 0.00 0.00 0.00 71 1008.0
20260906124514 11 207 3.2 6.4 0.00 0.00 0.00 72 1008.0
20260906123013 11 208 4.8 11.3 0.00 0.00 0.00 74 1007.9
20260906121513 10 237 4.8 8.0 0.00 0.00 0.00 76 1007.9
20260906120011 10 237 0.0 8.0 0.00 0.00 0.00 74 1008.0
20260906114510 10 237 3.2 6.4 0.00 0.00 0.00 75 1007.9
20260906113007 10 237 0.0 1.6 0.00 0.00 0.00 72 1007.6
20260906111506 11 237 0.0 1.6 0.00 0.00 0.00 73 1007.5
20260906110004 11 237 0.0 6.4 0.00 0.00 0.00 73 1007.3
20260906104504 11 237 0.0 11.3 0.00 0.00 0.00 73 1007.3
20260906103101 11 251 3.2 8.0 0.00 0.00 0.00 70 1007.2
20260906101558 12 252 0.0 3.2 0.00 0.00 0.00 69 1007.1
20260906100055 12 251 3.2 6.4 0.00 0.00 0.00 68 1007.2
20260906094555 12 252 0.0 8.0 0.00 0.00 0.00 68 1007.1
20260906093052 12 252 1.6 4.8 0.00 0.00 0.00 68 1007.2
20260906091551 13 252 0.0 3.2 0.00 0.00 0.00 67 1007.2
20260906090055 13 252 0.0 1.6 0.00 0.00 0.00 67 1007.2
20260906084551 13 252 0.0 4.8 0.00 0.00 0.00 67 1007.3
20260906083045 13 252 0.0 6.4 0.00 0.00 0.00 66 1007.6
20260906081540 15 252 1.6 8.0 0.00 0.00 0.00 65 1007.6
20260906080038 15 253 3.2 11.3 0.00 0.00 0.00 62 1007.9
20260906074536 15 303 3.2 8.0 0.00 0.00 0.00 62 1007.9
20260906073039 16 328 0.0 3.2 0.00 0.00 0.00 59 1008.1
20260906071529 16 328 0.0 3.2 0.00 0.00 0.00 56 1007.9
20260906070028 16 328 0.0 3.2 0.00 0.00 0.00 58 1008.0
20260906064527 16 328 0.0 3.2 0.00 0.00 0.00 58 1008.2
20260906063025 17 359 0.0 1.6 0.00 0.00 0.00 56 1008.3
20260906061524 17 359 0.0 3.2 0.00 0.00 0.00 57 1008.4
20260906060025 17 328 0.0 1.6 0.00 0.00 0.00 55 1008.3
20260906054520 17 328 0.0 1.6 0.00 0.00 0.00 53 1008.4
20260906053020 18 328 0.0 4.8 0.00 0.00 0.00 50 1008.5
20260906051520 18 328 0.0 1.6 0.00 0.00 0.00 50 1008.4
20260906050019 18 328 0.0 1.6 0.00 0.00 0.00 53 1008.4
20260906044518 18 328 0.0 3.2 0.00 0.00 0.00 47 1008.7
20260906043027 19 328 0.0 1.6 0.00 0.00 0.00 45 1008.5
20260906041517 18 328 0.0 0.0 0.00 0.00 0.00 47 1008.3
20260906040019 20 328 0.0 1.6 0.00 0.00 0.00 44 1008.2
20260906034526 21 328 1.6 6.4 0.00 0.00 0.00 42 1008.1
20260906033023 21 305 0.0 1.6 0.00 0.00 0.00 41 1007.9
20260906031511 21 305 0.0 4.8 0.00 0.00 0.00 40 1007.8
20260906030010 21 359 1.6 6.4 0.00 0.00 0.00 41 1007.8
20260906024508 21 305 0.0 6.4 0.00 0.00 0.00 40 1007.5
20260906023007 21 305 1.6 4.8 0.00 0.00 0.00 40 1007.3
20260906021507 22 304 1.6 8.0 0.00 0.00 0.00 39 1007.2
20260906020006 23 311 6.4 16.1 0.00 0.00 0.00 38 1006.9
20260906014515 23 296 6.4 14.5 0.00 0.00 0.00 38 1006.9
20260906013008 23 304 8.0 14.5 0.00 0.00 0.00 36 1006.7
20260906011505 25 308 9.7 19.3 0.00 0.00 0.00 35 1006.6
20260906010004 26 322 11.3 17.7 0.00 0.00 0.00 33 1006.5
20260906004504 27 304 12.9 19.3 0.00 0.00 0.00 32 1006.5
20260906003003 27 325 8.0 16.1 0.00 0.00 0.00 30 1006.2
20260906001502 28 359 6.4 12.9 0.00 0.00 0.00 29 1006.3
20260906000002 28 354 4.8 12.9 0.00 0.00 0.00 29 1006.2
20260905234501 28 354 4.8 12.9 0.00 0.00 0.00 30 1006.2
20260905233000 28 338 6.4 16.1 0.00 0.00 0.00 29 1006.1
20260905231600 28 317 6.4 16.1 0.00 0.00 0.00 28 1006.1
20260905230059 28 350 11.3 17.7 0.00 0.00 0.00 28 1006.0
20260905224557 28 327 6.4 12.9 0.00 0.00 0.00 29 1006.1
20260905223057 28 339 4.8 19.3 0.00 0.00 0.00 30 1006.1
20260905221554 28 12 1.6 16.1 0.00 0.00 0.00 28 1006.3